Retour au catalogue

STARLINK-33721

ActifCommunicationsVLEO
NORAD 63480·PAYLOAD·🇺🇸 United States

Lancé Apr 6, 2025 depuis Cape Canaveral Space Force Station

Loading…

Prochains Passages (prochaines 24 heures)

TLE

FraisSource: CelesTrak SupGP

Époque: Sep 14, 2026, 14:41 UTC

1 63480C 25070W   26257.61229167 -.00019095  00000+0 -69238-3 0  2574
2 63480  43.0028 269.1940 0001435 274.9324  20.9246 15.27551444    17

Suivez STARLINK-33721 en temps réel avec AllMySat

Download on the App Store